Regional Weather Roundup
Issued by NWS

Home | Current Version | Previous Version | Text Only | Print | Product List | Glossary On
Versions: 1 2 3 4 5 6 7 8 9 10 11 12 13 14 15 16 17 18 19 20 21 22 23 24 25 26 27 28 29 30 31 32 33 34 35 36 37 38 39 40 41 42 43 44 45 46 47 48 49 50
000
ASUS43 KDTX 250410
RWRMI
MICHIGAN HOURLY REGIONAL WEATHER ROUNDUP
NATIONAL WEATHER SERVICE DETROIT/PONTIAC MI
1100 PM EST SAT JAN 24 2015

NOTE: "FAIR" INDICATES FEW OR NO CLOUDS BELOW 12,000 FEET WITH NO
SIGNIFICANT WEATHER AND/OR OBSTRUCTION TO VISIBILITY.

MIZ047>049-052>055-059>063-066>070-074>076-081>083-250500-
SOUTHEAST LOWER MICHIGAN

CITY           SKY/WX    TMP DP  RH WIND       PRES   REMARKS
ADRIAN         CLOUDY    34  31  88 W5        29.69S
ALMA           CLOUDY    34  32  93 NW5       29.66S
ANN ARBOR      CLOUDY    34  32  92 W7        29.67R
BAD AXE        CLOUDY    30  24  77 N13       29.65R
DETROIT CITY   CLOUDY    37  30  75 W6        29.66R
DETROIT        CLOUDY    35  32  88 SW10      29.67S
FLINT          CLOUDY    36  32  85 W8        29.65R
GROSSE ILE     CLOUDY    36  32  87 SW8       29.66S
HILLSDALE      CLOUDY    35  32  88 CALM      29.66F
HOWELL         CLOUDY    33  32  96 W8        29.65S FOG

CITY           SKY/WX    TMP DP  RH WIND       PRES   REMARKS
JACKSON        CLOUDY    34  31  88 W5        29.66S
LAMBERTVILLE   CLOUDY    36  32  87 SW5       29.69F
LANSING        LGT SNOW  34  32  92 W7        29.67R FOG
LAPEER         NOT AVBL
MASON          LGT SNOW  33  32  96 CALM      29.66S
MONROE         FLURRIES  36  32  87 W8        29.67S
MT. CLEMENS    MOCLDY    35  31  85 W6        29.63R
PONTIAC        CLOUDY    34  31  88 W9          N/A
PORT HOPE        N/A     29  21  72 N13G18    29.65R
PORT HURON     CLOUDY    34  32  93 W5        29.65R
TRI CITIES     CLOUDY    36  28  73 N10       29.66R
YPSILANTI      CLOUDY    38  32  79 W8        29.67S
$$
MIZ043>046-050>051-056>058-064>065-071>073-077>080-250500-
SOUTHWEST LOWER MICHIGAN

CITY           SKY/WX    TMP DP  RH WIND       PRES   REMARKS
BATTLE CREEK   CLOUDY    37  31  78 W5        29.66F
BENTON HARBOR  CLOUDY    35  34  96 W7        29.68R FOG
BIG RAPIDS     CLOUDY    31  28  86 N9        29.66R
COLDWATER      CLOUDY    34  32  92 SW5       29.66F
HOLLAND        CLOUDY    38  33  82 W5        29.68R
GRAND RAPIDS   FLURRIES  36  32  85 CALM      29.66S
KALAMAZOO      CLOUDY    35  30  82 SW3       29.67S
MARSHALL       CLOUDY    34  31  90 CALM      29.66S
MUSKEGON       CLOUDY    36  33  89 CALM      29.67S FOG
$$
MIZ016>042-250500-
NORTHERN LOWER MICHIGAN

CITY           SKY/WX    TMP DP  RH WIND       PRES   REMARKS
ALPENA         CLOUDY    22  14  71 N15G22    29.70R
BEAVER ISLAND  PTCLDY    18  11  74 CALM      29.75R
BELLAIRE       MOCLDY    21  12  69 N8G17     29.74R
CADILLAC       CLOUDY    23  18  81 N7G16     29.67R
CHARLEVOIX     PTCLDY    19  12  74 N16G23    29.76S
FRANKFORT      CLOUDY    24  19  80 NE7       29.73R
GAYLORD        MOCLDY    16  11  80 VRB6      29.67R
GRAYLING       MOCLDY    20  14  76 N9        29.68R
HARBOR SPRINGS CLEAR     17  11  75 N3        29.73R
HOUGHTON LAKE  CLOUDY    23  16  74 N10       29.67R
MANISTEE       CLOUDY    28  19  69 NE8       29.71S
OSCODA         PTCLDY    24  16  71 N15       29.68R
PELLSTON       PTCLDY    16  10  77 N9        29.74R
TRAVERSE CITY  CLOUDY    25  18  74 N15       29.72R
$$
MIZ007>008-015-250500-
EASTERN UPPER MICHIGAN

CITY           SKY/WX    TMP DP  RH WIND       PRES   REMARKS
KINROSS        CLEAR      9   7  92 N8        29.74R
MACKINAC ISLAN CLEAR     14   8  76 N10G20    29.73R
NEWBERRY       MOCLDY    14   9  79 VRB12     29.74R
S. S. MARIE    CLEAR     10   0  63 N10       29.75R WCI  -4
$$
MIZ004>006-011>014-085-250500-
CENTRAL UPPER MICHIGAN

CITY           SKY/WX    TMP DP  RH WIND       PRES   REMARKS
MANISTIQUE     CLOUDY    19  13  77 N6        29.75R
ESCANABA       CLOUDY   N/A N/A N/A MISG        N/A
MENOMINEE      CLOUDY    21  12  68 N12       29.76R
SAWYER-GWINN   LGT SNOW  18  14  82 NE9       29.74R
$$
MIZ001>003-009>011-084-250500-
WESTERN UPPER MICHIGAN

CITY           SKY/WX    TMP DP  RH WIND       PRES   REMARKS
IRON MOUNTAIN  CLOUDY    19  10  68 N9        29.74R
HOUGHTON       CLOUDY    16  10  77 NE8       29.79R
COPPER HARBOR    N/A     18  10  71 E9G21     29.83R
IRONWOOD       MOCLDY    14   9  79 E9        29.76R
$$

ABBREVIATIONS USED IN REMARKS
   TC - TEMPERATURE IN CELSIUS
  WCI - WIND CHILL INDEX
   HX - HEAT INDEX
  VSB - VISIBILITY



USA.gov is the U.S. government's official web portal to all federal, state and local government web resources and services.